Probability
2 1 1 2 2 1 0 0 0 0 0 0 1 1 1 2 2 2 5 13 21 25 25 24 22 20 20 21 19 14 11 10 8 6 5 4 4 3 2 1 0 1 0 0 0 0 0 0 0
1 1 1 3 2 1 0 0 0 0 1 1 2 2 3 5 5 4 7 15 23 25 24 25 24 22 21 21 19 16 12 11 9 7 6 6 5 3 1 1 1 2 1 0 0 0 0 0 0
0 1 2 3 2 0 0 0 0 0 1 2 3 4 6 7 7 6 10 18 24 25 24 25 26 24 22 21 20 17 14 12 11 8 7 6 6 3 2 2 3 3 2 0 0 0 0 0 0
0 1 3 3 1 0 0 0 0 0 1 2 4 7 8 9 8 9 14 20 24 26 25 25 26 26 24 23 20 17 15 14 12 9 7 6 6 4 3 5 5 3 1 0 0 0 0 0 0
1 2 3 2 0 0 0 0 0 0 0 2 6 10 11 11 10 12 17 22 25 26 25 25 25 26 26 25 22 18 16 14 11 8 7 6 6 6 5 5 5 3 1 0 0 0 0 0 0
2 2 1 0 0 0 0 0 0 0 0 2 8 12 13 13 13 16 20 23 25 25 24 23 24 24 24 24 23 19 16 13 10 8 6 6 6 6 5 4 4 3 1 0 0 0 0 0 0
2 1 0 0 1 0 0 0 0 0 0 2 7 12 14 13 13 16 20 22 24 24 24 23 22 22 22 22 21 19 16 13 10 8 6 6 6 5 4 3 3 3 1 0 0 0 0 0 0
1 0 0 0 0 0 0 0 0 0 0 2 5 10 13 13 12 13 17 20 21 23 23 22 20 20 20 19 18 17 15 12 9 7 6 5 4 4 3 3 3 3 2 1 0 1 1 0 0
0 0 0 0 0 0 0 0 0 0 1 3 5 9 12 13 11 11 14 16 17 18 20 20 19 17 16 16 15 14 13 11 8 6 4 4 3 3 3 3 2 2 2 1 1 2 1 0 0
0 0 0 0 0 0 0 0 0 1 2 4 6 8 10 10 9 8 10 11 11 12 14 17 18 16 15 15 14 13 11 10 8 5 3 3 2 2 3 2 1 1 1 0 1 1 1 0 0
0 0 0 0 0 0 0 0 0 1 2 4 5 5 6 7 6 5 5 6 7 8 10 13 15 15 15 15 13 11 9 7 6 5 4 3 2 2 2 2 1 0 0 0 0 0 0 0 0
0 0 0 0 0 0 0 0 0 0 2 3 3 3 3 5 5 4 3 4 6 6 7 8 10 12 12 12 11 8 6 4 4 5 4 3 3 2 1 1 0 0 0 0 0 0 0 0 0
0 0 0 0 0 0 0 0 0 1 2 2 2 1 2 3 4 3 3 4 6 6 5 6 7 8 8 8 8 6 4 3 3 3 3 3 3 2 1 0 0 0 0 0 0 0 0 0 0
0 0 0 0 0 0 0 0 0 1 1 1 1 1 1 2 3 3 3 4 5 6 6 6 6 6 6 6 6 5 4 3 3 3 2 3 3 2 1 0 0 0 0 0 0 0 0 0 0
0 0 0 0 0 0 0 0 0 0 0 0 0 0 1 1 1 2 2 3 4 5 6 6 6 6 6 6 5 4 3 3 3 2 1 2 2 2 1 0 0 0 0 0 0 0 0 0 0
0 0 0 0 0 0 0 0 0 0 0 0 0 0 0 0 0 1 1 1 1 3 3 4 5 6 6 6 4 3 3 3 3 2 1 1 1 1 0 0 0 0 0 0 0 0 0 0 0
0 0 0 0 0 0 0 0 0 0 0 0 0 0 0 0 0 0 0 0 0 1 1 2 3 4 5 4 4 3 3 3 3 2 1 0 0 0 0 0 0 0 0 0 0 0 0 0 0
0 0 0 0 0 0 0 0 0 0 0 0 0 0 0 0 0 0 0 0 0 0 0 1 1 1 2 2 2 3 3 3 2 2 1 0 0 0 0 0 0 0 0 0 0 0 0 0 0
0 0 0 0 0 0 0 0 0 0 0 0 0 0 0 0 0 0 0 0 0 0 0 0 0 0 0 0 1 1 2 1 1 1 0 0 0 0 0 0 0 0 0 0 0 0 0 0 0
0 0 0 0 0 0 0 0 0 0 0 0 0 0 0 0 0 0 0 0 0 0 0 0 0 0 0 0 0 0 0 0 0 0 0 0 0 0 0 0 0 0 0 0 0 0 0 0 0
0 0 0 0 0 0 0 0 0 0 0 0 0 0 0 0 0 0 0 0 0 0 0 0 0 0 0 0 0 0 0 0 0 0 0 0 0 0 0 0 0 0 0 0 0 0 0 0 0
0 0 0 0 0 0 0 0 0 0 0 0 0 0 0 0 0 0 0 0 0 0 0 0 0 0 0 0 0 0 0 0 0 0 0 0 0 0 0 0 0 0 0 0 0 0 0 0 0
0 0 0 0 0 0 0 0 0 0 0 0 0 0 0 0 0 0 0 0 0 0 0 0 0 0 0 0 0 0 0 0 0 0 0 0 0 0 0 0 0 0 0 0 0 0 0 0 0
0 0 0 0 0 0 0 0 0 0 0 0 0 0 0 0 0 0 0 0 0 0 0 0 0 0 0 0 0 0 0 0 0 0 0 0 0 0 0 0 0 0 0 0 0 0 0 0 0
0 0 0 0 0 0 0 0 0 0 0 0 0 0 0 0 0 0 0 0 0 0 0 0 0 0 0 0 0 0 0 0 0 0 0 0 0 0 0 0 0 0 0 0 0 0 0 0 0
0 0 0 0 0 0 0 0 0 0 0 0 0 0 0 0 0 0 0 0 0 0 0 0 0 0 0 0 0 0 0 0 0 0 0 0 0 0 0 0 0 0 0 0 0 0 0 0 0
0 0 0 0 0 0 0 0 0 0 0 0 0 0 0 0 0 0 0 0 0 0 0 0 0 0 0 0 0 0 0 0 0 0 0 0 0 0 0 0 0 0 0 0 0 0 0 0 0
0 0 0 0 0 0 0 0 0 0 0 0 0 0 0 0 0 0 0 0 0 0 0 0 0 0 0 0 0 0 0 0 0 0 0 0 0 0 0 0 0 0 0 0 0 0 0 0 0
0 0 0 0 0 0 0 0 0 0 0 0 0 0 0 0 0 0 0 0 0 0 0 0 0 0 0 0 0 0 0 0 0 0 0 0 0 0 0 0 0 0 0 0 0 0 0 0 0
0 0 0 0 0 0 0 0 0 0 0 0 0 0 0 0 0 0 0 0 0 0 0 0 0 0 0 0 0 0 0 0 0 0 0 0 0 0 0 0 0 0 0 0 0 0 0 0 0
Wind_Speed
5 3 2 3 5 2 4 4 2 2 2 1 1 3 5 4 4 3 0 2 4 5 4 5 8 8 9 9 9 9 8 8 8 8 8 7 7 7 6 6 5 5 6 6 6 6 6 6 5
1 2 4 4 4 3 5 4 3 3 3 2 2 3 3 1 1 1 1 2 4 5 4 4 8 9 9 9 8 8 8 8 7 7 7 7 6 6 6 5 5 5 5 5 5 5 5 5 4
1 2 3 3 4 6 5 4 4 1 1 1 2 2 2 1 0 0 1 2 4 4 4 4 8 9 9 8 8 8 7 7 7 6 6 6 5 5 5 5 4 4 4 4 4 4 4 4 3
2 3 3 2 5 5 4 3 3 2 1 2 3 2 1 1 1 0 2 4 5 4 4 5 7 8 8 8 7 7 7 7 6 6 5 5 5 5 5 4 4 4 3 3 3 2 2 2 2
3 3 3 2 4 3 2 1 3 2 1 1 3 3 0 2 1 3 4 4 5 4 3 4 6 7 7 7 7 6 6 6 6 5 5 5 5 4 4 4 3 3 2 2 2 1 1 1 1
3 3 3 4 4 2 1 1 2 2 1 1 3 3 1 2 2 2 4 4 3 4 4 4 6 6 7 7 7 6 6 6 5 5 5 4 4 4 4 4 3 2 2 1 1 1 1 1 1
3 3 3 4 3 2 1 1 3 3 2 2 3 4 1 0 1 2 4 5 4 4 4 4 4 4 6 6 6 6 6 6 5 5 5 5 5 5 4 4 3 3 2 2 1 1 1 2 2
3 4 2 3 4 3 1 1 1 2 2 1 2 5 4 3 2 4 4 5 5 4 4 3 3 4 3 3 5 6 6 6 6 5 5 5 4 4 4 3 3 3 3 3 2 2 2 2 2
3 3 3 5 5 3 2 2 1 1 3 1 0 1 2 5 5 5 5 5 4 4 3 3 3 3 3 3 5 5 6 6 5 5 5 4 2 2 2 3 3 3 3 3 3 3 3 3 3
3 3 4 3 3 3 2 2 2 2 2 1 1 2 4 5 5 5 4 4 3 3 2 2 3 3 3 3 3 3 3 3 3 3 3 2 2 2 2 3 3 3 3 3 3 4 4 3 1
2 3 1 1 1 1 2 1 1 5 2 4 5 5 5 4 4 4 4 3 3 2 2 2 3 3 3 2 2 2 2 2 2 3 3 2 2 2 2 1 2 2 2 2 3 3 2 2 1
2 1 1 1 1 1 1 2 1 1 4 2 4 7 6 5 4 4 4 2 3 3 2 3 3 3 3 3 2 2 2 2 2 2 2 2 1 2 2 1 1 1 1 1 1 1 2 2 2
2 0 2 2 2 1 2 1 2 1 2 2 5 6 6 5 4 3 3 3 3 2 2 3 3 3 2 3 2 2 2 2 2 1 2 2 1 1 1 1 1 1 1 1 1 1 2 2 2
1 1 2 3 2 2 3 2 2 1 1 4 5 5 4 4 4 3 3 2 2 2 2 1 2 3 3 3 2 2 2 2 2 2 2 2 1 1 1 1 1 1 1 1 1 2 2 2 2
1 3 5 4 3 1 3 4 1 1 2 4 4 3 3 3 3 3 2 2 2 2 1 2 2 3 3 3 3 2 2 2 2 2 2 2 2 1 1 1 1 1 1 1 1 2 1 2 2
3 4 3 4 3 2 3 0 2 0 3 3 3 3 3 2 2 2 2 2 2 2 2 2 2 3 3 3 2 2 2 2 2 2 2 3 2 2 1 1 2 2 1 1 1 1 1 2 2
5 3 1 3 3 2 3 1 2 1 3 3 2 2 2 2 1 1 1 2 2 2 2 2 2 2 2 2 2 2 2 2 2 2 2 3 3 3 2 1 2 2 2 1 1 1 1 2 2
0 1 1 2 4 3 2 1 2 1 2 2 2 2 2 3 2 1 2 2 2 2 2 2 2 3 2 2 2 2 3 2 2 2 2 3 3 3 2 2 2 2 2 2 2 2 1 1 2
2 2 1 2 3 2 1 2 3 1 1 1 2 2 2 3 1 1 2 2 2 1 2 2 2 2 2 2 2 1 1 2 2 2 3 3 3 3 3 2 3 3 2 2 2 2 2 2 2
3 3 2 3 3 2 1 3 3 1 2 3 3 3 3 2 1 2 2 1 1 1 1 1 1 2 2 1 1 0 0 0 1 2 2 3 3 3 2 3 2 2 2 3 3 2 2 1 2
3 1 1 1 3 4 3 5 3 2 1 1 2 2 2 4 4 3 2 2 2 1 2 1 1 1 1 1 1 1 2 2 1 2 2 3 3 2 2 2 2 2 2 2 3 2 2 2 2
2 2 0 1 3 3 3 2 5 3 3 2 3 2 3 3 3 3 3 3 3 2 1 1 1 1 1 1 1 1 0 0 1 1 1 2 2 2 2 2 2 2 2 2 2 2 1 1 2
1 2 3 2 3 2 3 1 8 3 3 4 3 4 4 3 3 3 3 3 3 2 2 1 1 1 1 1 1 1 0 1 1 1 2 2 2 2 2 2 1 1 1 2 2 2 2 1 2
1 3 4 5 4 1 1 2 7 4 4 3 2 2 3 3 2 2 1 1 1 1 1 1 2 1 1 1 0 1 2 2 2 2 2 2 2 2 2 2 2 2 1 2 2 2 2 2 2
4 5 5 6 4 4 1 2 9 5 4 3 3 3 2 1 1 1 1 1 1 1 1 1 1 1 1 1 1 2 2 2 2 2 2 2 2 2 3 2 2 2 2 2 2 1 2 2 2
1 3 5 3 3 5 2 5 8 4 3 3 2 2 1 1 1 1 2 2 2 2 2 1 2 2 2 2 2 2 2 1 2 3 2 2 2 2 3 2 2 3 2 2 1 1 2 1 2
2 2 2 4 1 3 5 7 8 2 3 2 1 2 1 1 1 1 1 1 1 2 2 3 3 3 3 3 3 2 2 2 3 3 3 2 2 2 3 3 3 3 3 2 2 1 2 2 2
2 4 3 3 1 3 6 5 5 4 3 2 2 2 2 2 2 2 2 2 2 2 2 2 3 4 3 3 3 2 3 3 3 3 3 3 3 3 3 3 3 3 3 2 2 2 2 2 2
2 2 3 3 2 3 4 7 4 4 2 1 2 2 2 2 2 2 2 2 2 2 2 2 2 3 3 3 3 3 3 3 3 3 4 4 3 3 3 3 3 3 3 3 2 3 2 3 3
2 3 5 3 2 3 3 9 3 2 2 1 1 2 2 2 2 2 2 2 2 2 2 2 3 3 4 3 3 4 3 3 3 4 4 4 4 4 4 3 3 4 4 3 3 4 3 3 4
Wind_Direction
337 358 49 59 68 75 220 234 210 178 185 192 132 131 143 150 161 184 117 114 121 139 147 150 142 133 129 123 122 122 119 118 117 115 113 112 110 109 105 101 97 94 88 86 85 83 81 80 82
345 18 54 70 121 186 237 220 202 199 184 136 61 88 96 95 29 85 72 92 121 131 130 137 138 133 128 124 123 125 123 120 118 115 112 112 111 110 106 101 93 89 85 81 77 80 80 78 73
0 45 93 101 158 189 208 203 193 219 163 116 81 61 111 132 0 122 86 114 110 114 118 128 130 132 129 127 124 126 123 120 118 116 113 110 108 109 107 101 93 87 85 82 80 84 79 72 65
74 56 69 122 203 211 198 199 183 142 39 54 109 93 35 2 300 207 111 108 108 108 113 125 121 127 126 125 122 122 124 121 118 115 113 112 110 106 102 99 94 88 88 89 87 88 83 66 55
66 96 117 193 213 225 227 210 161 140 156 97 115 121 57 339 3 110 115 105 111 115 113 123 112 120 119 115 113 113 119 118 114 110 106 104 100 97 92 91 92 90 88 86 88 81 67 48 30
81 95 137 195 208 229 245 198 126 98 122 117 114 121 184 5 57 91 108 101 101 118 111 110 103 102 112 110 106 102 103 110 108 103 98 94 91 91 88 85 85 85 83 71 59 50 32 17 356
124 123 163 173 182 211 215 133 128 125 143 193 152 125 178 1 68 78 93 96 81 96 101 93 99 91 95 98 96 93 87 85 87 87 85 81 76 76 77 70 67 61 47 39 27 7 354 347 347
134 117 143 179 170 207 194 118 134 144 173 165 133 148 187 191 117 82 82 87 79 78 87 82 84 80 76 87 83 79 77 72 70 68 65 68 66 64 63 57 49 44 35 29 19 5 359 355 359
97 97 182 197 180 193 175 112 38 62 112 55 20 180 177 130 111 95 88 81 75 67 76 88 82 77 68 72 70 69 69 63 60 57 54 55 49 55 55 43 41 36 30 23 16 6 1 6 0
104 153 207 211 191 174 168 148 154 93 74 74 63 70 107 118 120 113 108 111 95 78 60 82 83 81 73 67 63 56 57 57 53 51 49 46 40 37 47 36 32 25 22 13 6 3 6 6 352
128 176 221 282 250 156 147 143 143 134 196 209 182 163 133 125 119 115 107 115 111 91 59 51 73 74 76 76 72 58 49 44 48 46 39 41 40 29 32 32 14 9 15 7 353 1 2 352 336
101 332 287 284 297 100 157 148 107 193 234 227 174 154 140 141 142 138 130 110 90 79 50 42 70 76 77 80 79 73 62 47 41 41 42 49 46 34 20 20 3 3 356 346 348 339 333 329 318
78 344 359 2 15 60 86 95 139 306 312 84 120 133 145 146 140 117 110 97 94 87 48 29 57 65 64 69 67 66 55 53 39 35 37 50 57 38 20 6 9 358 355 351 338 331 328 322 312
120 66 8 353 3 14 79 23 76 311 64 99 118 139 146 147 144 120 104 99 100 92 56 43 68 65 63 63 60 61 53 54 48 36 30 43 58 46 25 10 6 354 344 334 327 323 319 311 309
83 47 20 359 357 4 67 25 348 285 101 101 110 121 127 132 131 134 142 139 125 110 77 95 98 76 69 63 53 56 48 53 50 29 22 37 48 49 46 20 358 336 330 335 340 339 342 336 332
47 55 28 334 5 359 95 213 318 52 117 128 133 133 131 127 129 133 141 134 124 105 78 78 91 85 69 63 51 44 48 54 45 34 22 23 30 39 51 32 356 339 342 344 334 348 340 330 322
34 58 360 329 8 26 94 204 293 2 133 159 164 160 160 154 151 150 139 134 118 105 95 72 73 78 68 58 56 46 41 48 44 39 31 19 18 25 38 30 352 347 352 350 335 344 326 309 313
287 40 13 339 342 42 66 272 296 335 143 172 180 179 188 192 210 169 147 135 109 101 95 83 66 56 53 52 50 43 35 33 32 32 26 24 23 23 24 29 6 1 0 352 343 323 325 303 308
128 94 27 329 336 43 52 292 286 297 140 180 206 202 213 227 221 159 153 138 116 107 100 91 77 56 55 46 45 33 15 358 3 19 21 21 21 23 27 18 11 9 1 340 334 331 328 330 339
79 75 24 351 6 42 14 303 285 255 216 213 212 212 213 219 199 175 162 143 149 156 128 103 95 75 64 56 67 102 60 347 343 1 15 16 16 15 29 25 11 5 354 350 350 354 338 334 6
41 101 142 329 355 26 10 333 323 309 303 260 239 221 213 211 214 208 191 195 186 195 191 173 137 96 79 70 57 32 37 16 3 359 358 357 3 9 23 21 8 6 3 349 343 342 345 326 328
37 340 91 67 56 346 28 308 297 311 316 291 265 252 242 235 220 209 201 203 209 216 195 172 135 104 92 100 92 86 87 277 283 298 314 332 351 359 9 13 6 2 356 347 330 341 317 313 311
140 17 63 70 94 25 20 116 287 326 294 278 266 248 247 237 221 216 210 206 206 192 178 186 142 122 112 110 129 125 273 256 288 314 326 334 340 348 349 353 351 345 338 330 330 331 328 300 283
98 50 49 47 60 358 277 167 278 256 241 271 273 258 252 248 236 233 225 189 197 176 168 177 155 158 125 124 147 196 236 263 297 312 311 313 317 322 330 337 334 324 319 312 311 311 314 306 295
48 68 32 8 7 263 295 221 253 258 253 249 259 265 260 246 236 247 235 224 231 221 218 211 179 205 184 193 235 239 242 245 261 275 275 286 298 301 308 321 312 307 299 296 299 309 306 301 297
34 107 139 192 241 285 311 243 257 273 293 284 275 270 305 318 267 257 249 234 240 245 235 227 234 241 221 221 250 252 246 240 255 258 256 257 258 267 282 291 294 296 299 304 305 304 294 295 285
90 88 143 129 163 290 282 288 301 312 333 343 4 25 359 322 303 290 298 276 255 258 246 229 232 247 241 230 237 247 244 240 253 260 251 252 255 265 270 278 287 294 295 295 298 291 290 287 276
102 139 92 105 133 288 299 283 266 293 298 317 328 323 318 334 322 306 302 292 278 259 256 254 238 241 244 237 232 243 243 245 248 250 252 250 256 260 265 268 274 283 289 292 289 285 285 287 285
92 95 99 106 149 172 282 278 238 238 251 250 280 298 303 310 301 291 286 285 289 298 285 266 262 259 258 250 243 247 249 246 248 250 253 250 252 255 256 257 263 269 273 277 275 275 280 277 284
183 168 145 150 229 181 213 271 286 247 261 246 276 311 324 329 314 300 294 306 313 303 295 281 270 261 257 248 242 247 252 249 248 252 254 251 252 251 249 251 256 261 263 261 257 266 269 266 270